Location: Newark
(48.4472°N, 1.4892°E)
Time: 14:04:02
(UTC+00:00)

Transit 4A - Pass Details

Date: 18 January 2021
Orbit: 866 x 978 km, 66.8° (Epoch: 01 March)

Event Time Altitude Azimuth Distance (km) Brightness Sun altitude
Exits shadow 06:55:48 - 294° (WNW) 2,787 9.7 -7.1°
Reaches altitude 10° 06:56:29 10° 289° (WNW) 2,645 9.6 -7.0°
Maximum altitude 06:59:33 14° 259° (W) 2,324 9.5 -6.5°
Drops below altitude 10° 07:02:33 10° 228° (SW) 2,595 10.0 -6.1°
Sets 07:06:16 0° 205° (SSW) 3,506 10.9 -5.5°
